Location: Unspecified
(49.2170°N, 0.0000°E)
Time: 04:58:30
(UTC+00:00)

Transit 2A - Pass Details

Date: 21 June 2019
Orbit: 594 x 964 km, 66.7° (Epoch: 20 July)

Event Time Altitude Azimuth Distance (km) Brightness Sun altitude
Rises 06:14:33 0° 317° (NW) 3,586 9.2 19.6°
Reaches altitude 10° 06:18:08 10° 337° (NNW) 2,586 8.7 20.1°
Maximum altitude 06:22:00 17° 17° (NNE) 2,038 8.7 20.7°
Drops below altitude 10° 06:25:41 10° 58° (ENE) 2,431 10.1 21.3°
Sets 06:28:54 0° 78° (ENE) 3,282 10.8 21.8°
